Other Public Products
Issued by NWS Grand Forks, ND

Home | Current Version | Previous Version | Text Only | Print | Product List | Glossary Off
Versions: 1 2 3 4 5 6 7 8 9 10 11 12 13 14 15 16 17 18 19 20 21 22 23 24 25 26 27 28 29 30 31 32 33 34 35 36 37 38 39 40 41 42 43 44 45 46 47 48 49 50

000
FPUS83 KFGF 221810
OPUFGF
PRAIRIE TO PINES WEATHER ROUNDUP
NATIONAL WEATHER SERVICE EASTERN NORTH DAKOTA/GRAND FORKS ND
1200 PM CST WED FEB 22 2017

 **SATELLITE DATA USED TO AUGMENT SKY COVER AT AUTOMATED STATIONS**
 *****  WEATHER ACROSS EASTERN NORTH DAKOTA  *****

CITY           SKY/WX    TMP DP  RH WIND       PRES   REMARKS
GRAND FORKS    CLOUDY    35  28  75 N21       29.77R WCI  24
6HR MIN TEMP:  33; 6HR MAX TEMP:  35; 6HR PCP: TRACE;

GRAND FORKS AF CLOUDY    34  32  93 N16G25    29.78R WCI  23
GRAND CITY NWS NOT AVBL
BUXTON         NOT AVBL
DEVILS LAKE    CLOUDY    31  27  85 NE21      29.81S WCI  18
6HR MIN TEMP:  31; 6HR MAX TEMP:  32; 6HR PCP: TRACE;

FARGO          LGT RAIN  36  34  92 N15       29.69R FOG
6HR MIN TEMP:  33; 6HR MAX TEMP:  36; 6HR PCP:  0.03;

WAHPETON ARPT  CLOUDY    36  34  93 N14       29.64R
$$

 *****  WEATHER ACROSS CENTRAL AND WESTERN NORTH DAKOTA  *****

CITY           SKY/WX    TMP DP  RH WIND       PRES   REMARKS
JAMESTOWN      LGT SNOW  33  32  96 N13       29.74R VSB 3/4 WCI  24
6HR MIN TEMP:  33; 6HR MAX TEMP:  34; 6HR PCP:  0.09;

BISMARCK       LGT SNOW  35  32  88 N13       29.79R FOG
6HR MIN TEMP:  34; 6HR MAX TEMP:  35; 6HR PCP:  0.27;

MINOT          CLOUDY    33  28  81 N16       29.85R WCI  23
6HR MIN TEMP:  32; 6HR MAX TEMP:  33; 6HR PCP: TRACE;

MINOT AFB      CLOUDY    32  27  84 N12       29.85R WCI  23
6HR MIN TEMP:  31; 6HR MAX TEMP:  32; 6HR PCP: TRACE;

GARRISON         N/A     31  29  92 N7        29.83R WCI  24
6HR MIN TEMP:  31; 6HR MAX TEMP:  32; 6HR PCP:  0.01;

WILLISTON      CLOUDY    31  26  82 N8        29.91R WCI  23
6HR MIN TEMP:  30; 6HR MAX TEMP:  32; 6HR PCP: TRACE;

DICKINSON      LGT SNOW  30  27  88 N13       29.81R FOG     WCI  20
6HR MIN TEMP:  28; 6HR MAX TEMP:  32; 6HR PCP:  0.05;

HETTINGER      CLOUDY    33  30  88 N16G23    29.80R WCI  23
6HR MIN TEMP:  32; 6HR MAX TEMP:  38; 6HR PCP:  0.01;

$$

 *****  OTHER OBSERVATIONS NORTHEAST NORTH DAKOTA  *****

CITY           SKY/WX    TMP DP  RH WIND       PRES   REMARKS
WALHALLA       NOT AVBL
LANGDON        NOT AVBL
CAVALIER         N/A     32  28  86 N7        29.84R
GRAFTON        MOCLDY    32  30  93 N14       29.82S WCI  22
CANDO          NOT AVBL
FORT TOTTEN      N/A     32  31  96 NE7       29.95S
ROLLA          CLOUDY    28  28 100 N14       29.84R WCI  17
RUGBY            N/A     32  30  93 NE13      29.84R WCI  22
 ***** THE ABOVE OBSERVATIONS ARE NON NWS ARE NOT QUALITY
        CONTROLLED AND MAY MIS-REPORT RAIN FOR SNOW...
$$

 *****  OTHER OBSERVATIONS SOUTHEAST NORTH DAKOTA *****

CITY           SKY/WX    TMP DP  RH WIND       PRES   REMARKS
COOPERSTOWN    CLOUDY    32  32 100 NE20G28   29.75R WCI  20
VALLEY CITY    LGT SNOW  32  32 100 NE17      29.74S VSB 3/4 WCI  21
OAKES          NOT AVBL
GWINNER        CLOUDY    34  34 100 NW14      29.73R WCI  24
SHEYENNE NWR     N/A     33  33 100 N9        29.95S
BUFFALO        NOT AVBL
WYNDMERE       NOT AVBL
 ***** THE ABOVE OBSERVATIONS ARE NON NWS ARE NOT QUALITY
       CONTROLLED AND MAY MIS-REPORT RAIN FOR SNOW...
$$

  *****  WEATHER ACROSS NORTHERN MINNESOTA  *****

CITY           SKY/WX    TMP DP  RH WIND       PRES   REMARKS
FLAG ISLAND    CLOUDY    30  25  80 N13       29.76F WCI  20
WARROAD        CLOUDY    32  28  86 N12       29.78R WCI  23
ROSEAU         CLOUDY    32  27  80 N14       29.78R WCI  22
HALLOCK        CLOUDY    34  28  80 N13       29.81R WCI  25
THF RVR FALLS  LGT RAIN  33  30  88 N20       29.74S WCI  21
6HR MIN TEMP:  33; 6HR MAX TEMP:  34; 6HR PCP:  0.01;

HALSTAD          N/A     35  34  94 N21         N/A  WCI  24
FOSSTON        CLOUDY    34  32  93 N13       29.70S WCI  25
BAUDETTE       LGT SNOW  33  30  88 N9        29.73S FOG
6HR MIN TEMP:  32; 6HR MAX TEMP:  34; 6HR PCP:  0.04;

WASKISH        CLOUDY    34  32  93 N10       29.71S
CROOKSTON      MIX PCPN  32  32 100 NE17G24   29.75R WCI  21
$$
  *****  WEATHER ACROSS CENTRAL AND WEST MINNESOTA  *****

CITY           SKY/WX    TMP DP  RH WIND       PRES   REMARKS
BEMIDJI        LGT RAIN  33  32  95 N9        29.68R
PARK RAPIDS    LGT RAIN  39  34  82 N7        29.64R
6HR MIN TEMP:  32; 6HR MAX TEMP:  40; 6HR PCP: TRACE;

WADENA         LGT RAIN  39  37  93 NW6       29.63R
DETROIT LAKES  LGT RAIN  36  36 100 N3        29.63F
MOORHEAD       LGT RAIN  34  34 100 N14       29.69R WCI  24
FERGUS FALLS   FAIR      45  41  87 E13       29.62F
ELBOW LAKE     FAIR      41  38  88 NE6       29.60F
MORRIS MN      FAIR      46  43  87 N3        29.58F
STAPLES        CLOUDY    41  37  87 N6        29.61S
WHEATON        FAIR      43  37  81 W9        29.67R
$$
  *****  WEATHER ELSEWHERE ACROSS MINNESOTA  *****

CITY           SKY/WX    TMP DP  RH WIND       PRES   REMARKS
DULUTH         PTSUNNY   46  36  68 E6        29.60F
6HR MIN TEMP:  36; 6HR MAX TEMP:  46;

INTRNTL FALLS  CLOUDY    34  31  88 N8        29.71S
6HR MIN TEMP:  32; 6HR MAX TEMP:  34; 6HR PCP: TRACE;

ELY            PTSUNNY   37  32  81 CALM      29.65S
CLOQUET        CLOUDY    45  36  70 N3        29.60F
BRAINERD       PTSUNNY   44  38  79 N8        29.60F
6HR MIN TEMP:  32; 6HR MAX TEMP:  44;

HIBBING        CLOUDY    39  35  86 N6        29.63S
6HR MIN TEMP:  30; 6HR MAX TEMP:  40;

ALEXANDRIA     FAIR      48  38  68 E9        29.59F
6HR MIN TEMP:  34; 6HR MAX TEMP:  48;

SAINT CLOUD    FAIR      47  41  80 NE7       29.57S
6HR MIN TEMP:  33; 6HR MAX TEMP:  47;

MINNEAPOLIS    PTSUNNY   50  41  71 SE9       29.55F
6HR MIN TEMP:  37; 6HR MAX TEMP:  50;

$$

  *****  WEATHER ACROSS SOUTH DAKOTA  *****

CITY           SKY/WX    TMP DP  RH WIND       PRES   REMARKS
SIOUX FALLS    FAIR      60  43  53 W15       29.62F
6HR MIN TEMP:  36; 6HR MAX TEMP:  60;

BROOKINGS      FAIR      55  41  59 W15G24    29.59S
WATERTOWN      FAIR      50  43  77 N10       29.60R
6HR MIN TEMP:  39; 6HR MAX TEMP:  52;

HURON          FAIR      50  42  74 NW20      29.65R
6HR MIN TEMP:  39; 6HR MAX TEMP:  50; 6HR PCP: TRACE;

SISSETON         N/A     40  38  93 N20G25    29.66R
ABERDEEN       PTSUNNY   42  35  76 N14       29.69R
6HR MIN TEMP:  34; 6HR MAX TEMP:  42;

MITCHELL       FAIR      60  39  45 W23       29.64S
PIERRE         FAIR      52  38  58 NW16      29.72S
6HR MIN TEMP:  43; 6HR MAX TEMP:  52;

MOBRIDGE       CLOUDY    40  34  79 NW15      29.72R
RAPID CITY     FAIR      55  22  27 NW28G36   29.74F
6HR MIN TEMP:  44; 6HR MAX TEMP:  55;

$$

  *****  SOME WEATHER IN NEARBY STATES *****

CITY           SKY/WX    TMP DP  RH WIND       PRES   REMARKS
GLASGOW MT     CLOUDY    31  26  82 VRB5      29.94R HAZE
6HR MIN TEMP:  30; 6HR MAX TEMP:  31; 6HR PCP:  0.02;

GREAT FALLS MT CLOUDY    36  29  75 CALM      29.89R
6HR MIN TEMP:  30; 6HR MAX TEMP:  36;

CHEYENNE WY    FAIR      44  18  35 NW23G29   29.88F
6HR MIN TEMP:  31; 6HR MAX TEMP:  44;

SCOTTSBLUFF NE PTSUNNY   53  22  29 W17       29.83F
6HR MIN TEMP:  41; 6HR MAX TEMP:  54;

OMAHA NE       FAIR      67  36  31 NW8       29.65S
6HR MIN TEMP:  41; 6HR MAX TEMP:  67;

DES MOINES IA  FAIR      71  33  24 W25G31    29.61R
6HR MIN TEMP:  47; 6HR MAX TEMP:  73;

DAVENPORT IA   FAIR      65  51  60 S16G24    29.68F
6HR MIN TEMP:  52; 6HR MAX TEMP:  66;

CHICAGO IL     PTSUNNY   61  52  72 SW10G21   29.73F
6HR MIN TEMP:  53; 6HR MAX TEMP:  61;

EAU CLAIRE WI  FAIR      53  39  59 VRB3      29.56F
6HR MIN TEMP:  35; 6HR MAX TEMP:  54;

LA CROSSE WI   FAIR      58  37  45 SE10      29.58F
6HR MIN TEMP:  41; 6HR MAX TEMP:  58; 6HR PCP: TRACE;

$$

  *****  SOME NATIONAL WEATHER *****

CITY           SKY/WX    TMP DP  RH WIND       PRES   REMARKS
LA GUARDIA NY  CLOUDY    54  37  52 N3        29.95F
6HR MIN TEMP:  45; 6HR MAX TEMP:  54;



USA.gov is the U.S. government's official web portal to all federal, state and local government web resources and services.